Tracking 25378 objects as of 22-Jan-2022
HD Live streaming from Space Station
objects crossing your sky now

COSMOS 1247

Track COSMOS 1247 now!
COSMOS 1247 is classified as:


NORAD ID: 12303
Int'l Code: 1981-016A
Perigee: 2,415.8 km
Apogee: 37,622.5 km
Inclination: 66.5 °
Period: 711.1 minutes
Semi major axis: 26390 km
RCS: 8.0719 m2 (large)
Launch date: February 19, 1981
Source: Commonwealth of Independent States (former USSR) (CIS)
Launch site: PLESETSK MISSILE AND SPACE COMPLEX (PKMTR)
aabbcc
Your satellite tracking list
Your tracking list is empty




NASA's NSSDC Master Catalog

Two Line Element Set (TLE):
1 12303U 81016A   22021.20956988 -.00000921  00000-0  00000-0 0  9992
2 12303  66.5464 120.8273 6670425  18.8662 357.1387  2.02507269302615
Source of the keplerian elements: AFSPC